Content
SEND FEEDBACK

Daily
Averages
Monthly
Summary
United States of America

ITHACA, NEW YORK


Home > North America > United States > New York
Elevation: 1094 feet     Latitude: 42 29N     Longitude: 076 28W

WEATHER
 
SELECT A DAY
Number of Records: 162,128;   Date Range: 1/1/95 - 10/24/14
 
SHARE

PRINT THIS DATA

[ ← Previous Day ]
WEATHER ALMANAC - FEBRUARY 3, 2013
[ Next Day → ]
[ °C ]   °F
Weather ElementAverageHighLow
Temperature17.7 °F24.1 °F (1:56 pm)8.6 °F (6:21 am)
Dewpoint13.5 °F19.4 °F (6:20 pm)5 °F (6:56 am)
Humidity83.8 %93 % (6:20 pm)65 % (1:56 pm)
Barometer29.84 in29.99 in (1:56 am)29.74 in (6:20 pm)
Wind Speed6 mph16.1 mph (10:48 pm)
Wind Gust21.9 mph (10:48 pm)
Weather ElementAverage
Visibility6.4 mi
Wind DirectionSSE (159.1 °)

Weather ElementTotal
Precipitation0.01 in
Heating Degree Days48.7 (Base 65)
Averaged from 35 records on February 3, 2013
WEATHER CONDITIONS BREAKOUT
WIND DIRECTION BREAKOUT
WEATHER BY HOUR - FEBRUARY 3, 2013
[ °C ]   °F
Local TimeTemperatureDewpointHumidityBarometerVisibilityWind DirectionWind SpeedGust SpeedPrecipitationEventsConditions
1:56 AM13.1 °F10.0 °F88 %29.99 in10.0 miSSE (150°)4.6 mphOvercast
3:46 AM10.4 °F8.6 °F92 %29.90 in10.0 miEast (80°)3.5 mphOvercast
3:56 AM10.0 °F8.1 °F92 %29.96 in10.0 miCalmOvercast
4:06 AM10.4 °F6.8 °F85 %29.89 in10.0 miENE (70°)3.5 mphOvercast
4:56 AM10.0 °F7.2 °F88 %29.95 in10.0 miEast (80°)4.6 mphMostly Cloudy
5:56 AM9.1 °F6.1 °F87 %29.94 in10.0 miENE (70°)5.8 mphPartly Cloudy
6:21 AM8.6 °F6.8 °F92 %29.86 in10.0 miEast (80°)5.8 mphScattered Clouds
6:56 AM9.1 °F5.0 °F83 %29.92 in10.0 miENE (70°)6.9 mphScattered Clouds
7:56 AM9.1 °F5.0 °F83 %29.93 in10.0 miEast (80°)5.8 mphScattered Clouds
8:56 AM13.1 °F10.0 °F88 %29.93 in10.0 miEast (100°)4.6 mphMostly Cloudy
9:56 AM18.1 °F13.1 °F81 %29.92 in10.0 miSSE (160°)5.8 mphOvercast
10:56 AM21.0 °F14.0 °F74 %29.90 in10.0 miSSE (150°)8.1 mphOvercast
11:56 AM22.1 °F14.0 °F71 %29.87 in10.0 miSouth (170°)6.9 mphOvercast
12:56 PM23.0 °F14.0 °F68 %29.84 in10.0 miSouth (180°)5.8 mphMostly Cloudy
1:56 PM24.1 °F14.0 °F65 %29.81 in10.0 miSSW (210°)4.6 mphOvercast
2:56 PM24.1 °F15.1 °F69 %29.80 in5.0 miSW (220°)4.6 mph0.00 inSnowLight Snow
3:56 PM24.1 °F16.2 °F72 %29.81 in4.0 miCalm0.00 inSnowLight Snow
4:56 PM23.0 °F17.1 °F78 %29.79 in3.0 miCalm0.00 inSnowLight Snow
5:56 PM22.1 °F19.0 °F88 %29.79 in2.5 miCalm0.00 inSnowLight Snow
6:20 PM21.2 °F19.4 °F93 %29.74 in2.0 miCalm0.00 inSnowLight Snow
6:56 PM22.1 °F19.0 °F88 %29.80 in1.2 miCalm0.00 inSnowLight Snow
7:31 PM21.2 °F19.4 °F93 %29.74 in1.5 miCalm0.00 inSnowLight Snow
7:56 PM21.0 °F19.0 °F92 %29.81 in1.0 miCalm0.00 inSnowLight Snow
8:21 PM19.4 °F17.6 °F93 %29.75 in1.0 miNorth (350°)6.9 mph0.00 inSnowLight Snow
8:56 PM19.0 °F16.2 °F89 %29.82 in2.0 miNNW (330°)10.4 mph0.00 inSnowLight Snow
9:05 PM19.4 °F15.8 °F86 %29.77 in3.0 miNW (320°)9.2 mph0.00 inSnowLight Snow
9:12 PM19.4 °F15.8 °F86 %29.77 in2.0 miNW (320°)9.2 mph0.00 inSnowLight Snow
9:56 PM19.0 °F16.2 °F89 %29.84 in1.5 miNW (310°)6.9 mph0.01 inSnowLight Snow
10:18 PM19.4 °F15.8 °F86 %29.79 in1.5 miWNW (300°)9.2 mph0.00 inSnowLight Snow
10:27 PM19.4 °F17.6 °F93 %29.79 in1.8 miWNW (290°)10.4 mph0.00 inSnowLight Snow
10:48 PM19.4 °F15.8 °F86 %29.80 in3.0 miNW (310°)16.1 mph21.9 mph0.00 inSnowLight Snow
10:56 PM19.0 °F15.1 °F85 %29.86 in7.0 miNW (310°)12.7 mph0.00 inSnowLight Snow
11:03 PM19.4 °F14.0 °F80 %29.80 in10.0 miWNW (290°)11.5 mph0.00 inSnowLight Snow
11:16 PM19.4 °F12.2 °F74 %29.80 in10.0 miWNW (290°)13.8 mph0.00 inSnowLight Snow
11:56 PM18.1 °F12.0 °F77 %29.86 in10.0 miWest (280°)13.8 mph19.6 mph0.00 inOvercast
Hourly data recorded from KITH, located miles away from Ithaca, New York







STORIES FROM OUR PARTNERS